Wetbulb
37.33 38.57 37.87 37.50 37.69 38.09 38.08 37.61 37.61 38.11 38.69 39.54 39.29 39.48 39.56 39.59 40.24 40.65 41.15 41.98 42.44 43.12 43.48 43.88 44.60 43.96 43.82
35.86 36.24 35.83 36.84 36.58 36.07 36.13 36.31 36.25 37.10 37.86 38.08 38.27 38.70 38.45 38.47 38.99 39.50 39.41 40.12 40.67 41.44 42.05 42.77 42.73 43.41 43.65
33.69 35.97 35.78 35.77 34.93 35.00 34.47 35.15 35.59 36.03 36.81 37.20 37.38 37.53 37.46 37.60 37.87 38.06 37.92 38.66 40.02 40.90 41.20 41.50 41.76 42.05 42.59
33.13 33.14 33.59 34.74 34.08 31.78 31.39 33.85 33.13 34.72 35.63 35.68 36.06 36.20 36.49 36.68 36.84 36.50 36.58 37.38 38.95 40.61 40.65 40.44 40.49 40.81 41.24
31.34 31.81 31.98 31.52 30.08 31.45 30.27 31.41 32.52 33.84 32.85 33.37 33.73 34.25 34.95 35.71 35.60 35.41 35.83 37.00 38.45 39.27 39.98 40.02 39.76 39.79 40.02
30.84 30.34 30.74 30.61 31.00 30.08 29.62 27.98 26.80 33.97 31.32 30.52 33.65 32.90 34.41 34.66 34.95 34.98 35.78 37.43 37.73 37.19 37.42 38.08 38.39 38.77 39.07
30.32 30.39 29.89 30.65 30.56 28.87 28.33 28.07 28.02 30.86 30.53 28.51 32.86 31.50 34.24 34.16 34.67 34.59 35.08 35.40 35.57 35.79 36.18 36.63 37.04 37.51 38.05
32.20 31.88 31.61 32.18 31.62 30.55 29.37 29.19 30.48 31.44 32.12 26.60 31.33 30.81 33.11 34.39 34.76 34.36 34.85 35.04 35.19 35.68 36.04 36.18 36.28 36.48 36.72
32.03 31.51 31.69 31.55 31.46 30.12 27.97 25.70 24.50 27.18 31.52 27.92 29.55 29.57 30.97 32.63 34.25 35.00 34.84 34.81 35.14 35.73 35.74 35.75 35.81 35.93 36.04
30.99 31.38 31.29 31.21 30.46 29.25 26.94 23.93 23.98 24.64 30.63 27.58 28.06 28.06 25.80 31.97 32.19 33.76 34.12 35.03 35.39 34.97 35.40 35.33 35.01 34.44 34.49
30.00 30.44 30.92 31.24 31.32 31.03 30.12 28.34 26.10 25.41 30.23 29.62 27.89 27.44 27.40 27.05 30.23 32.49 33.52 33.82 33.88 34.29 35.17 35.26 35.23 35.02 33.95
28.37 28.41 28.07 28.16 29.37 29.75 30.10 30.06 30.16 28.77 30.89 30.09 28.19 27.41 27.00 26.94 26.45 30.94 32.14 33.19 33.40 32.47 32.92 34.00 34.70 34.83 35.09
26.09 26.03 27.23 27.99 28.59 29.08 29.90 30.03 30.42 31.10 30.72 30.83 29.90 29.47 29.06 26.82 26.02 27.37 28.84 30.77 32.94 32.43 32.71 32.71 32.47 32.89 31.55
25.43 26.60 28.04 28.07 27.23 27.68 25.90 26.70 26.65 28.09 30.73 31.51 30.70 29.48 27.20 27.92 27.46 26.69 29.99 28.28 30.98 30.30 31.12 32.59 33.95 32.83 32.26
25.15 25.16 25.61 26.20 25.90 26.59 25.83 25.06 23.92 24.57 25.81 28.98 30.69 30.85 30.86 29.96 26.09 28.03 28.74 28.46 29.58 28.75 29.69 28.84 31.41 32.28 31.75
25.36 25.25 24.33 24.11 24.18 25.85 25.50 24.26 23.61 24.30 25.14 26.49 25.94 26.37 27.87 30.21 31.01 27.37 28.31 27.06 28.21 28.71 29.34 27.62 27.94 30.67 31.40
25.40 25.05 24.88 25.21 24.84 24.22 24.23 23.85 23.69 25.24 25.83 26.53 25.08 23.61 21.07 20.74 28.06 30.29 27.43 26.61 26.82 26.58 27.46 27.47 26.69 28.85 29.92
MSLP
1025.20 1025.27 1025.15 1024.88 1024.48 1024.21 1023.71 1023.26 1022.78 1022.57 1022.14 1021.44 1020.96 1020.40 1019.87 1019.36 1018.71 1018.13 1017.57 1016.97 1016.44 1015.76 1015.05 1014.35 1013.85 1013.30 1012.87
1025.21 1025.04 1025.00 1024.90 1024.40 1023.82 1023.33 1023.28 1022.90 1022.17 1021.78 1021.10 1020.57 1020.02 1019.75 1019.36 1018.67 1018.08 1017.73 1017.13 1016.53 1015.84 1015.11 1014.27 1013.87 1013.28 1012.70
1025.01 1024.89 1024.69 1024.51 1024.43 1024.00 1023.60 1023.14 1022.49 1022.03 1021.31 1020.68 1020.30 1020.01 1019.63 1019.12 1018.52 1018.08 1017.74 1016.97 1016.18 1015.38 1014.73 1014.17 1013.86 1013.39 1012.74
1025.22 1025.19 1024.85 1024.40 1024.49 1024.00 1023.24 1023.03 1022.39 1021.61 1021.04 1020.74 1020.28 1019.69 1019.21 1018.75 1018.24 1017.95 1017.50 1016.87 1015.91 1015.02 1014.39 1013.99 1013.65 1013.25 1012.79
1025.25 1025.23 1024.69 1024.49 1024.59 1024.14 1023.66 1022.98 1022.22 1021.76 1021.29 1020.84 1020.00 1019.45 1018.86 1018.27 1017.83 1017.57 1017.23 1016.55 1015.64 1015.06 1014.47 1013.88 1013.49 1013.14 1012.68
1025.84 1025.69 1025.19 1024.74 1024.51 1024.70 1023.90 1023.22 1022.50 1022.15 1021.88 1020.89 1020.21 1019.39 1018.56 1018.03 1017.76 1017.40 1016.87 1016.04 1015.53 1015.07 1014.71 1014.18 1013.65 1013.17 1012.67
1025.80 1026.16 1025.48 1025.11 1025.03 1024.58 1024.31 1024.10 1023.34 1022.58 1022.08 1021.04 1020.17 1019.23 1018.34 1017.84 1017.43 1017.15 1016.67 1016.17 1015.64 1015.13 1014.61 1014.07 1013.51 1013.03 1012.50
1025.69 1025.86 1025.81 1025.45 1024.96 1024.63 1024.58 1024.19 1023.35 1022.48 1021.95 1021.11 1020.23 1019.08 1018.29 1017.54 1017.10 1016.89 1016.47 1015.95 1015.48 1014.93 1014.34 1013.80 1013.30 1012.77 1012.28
1026.11 1026.07 1025.91 1025.54 1025.29 1025.03 1024.65 1024.30 1023.48 1022.56 1021.60 1021.47 1020.37 1019.39 1018.44 1017.31 1016.88 1016.54 1016.16 1015.71 1015.20 1014.67 1014.16 1013.65 1013.14 1012.54 1011.80
1025.65 1025.40 1025.35 1025.18 1025.28 1025.27 1025.08 1024.55 1023.85 1022.55 1021.58 1021.65 1020.59 1020.11 1018.93 1017.42 1017.17 1016.41 1015.85 1015.37 1014.84 1014.44 1013.97 1013.50 1013.09 1012.46 1011.73
1025.65 1025.32 1025.12 1024.87 1024.66 1024.58 1024.40 1024.19 1023.63 1022.94 1021.98 1021.94 1020.93 1020.46 1019.81 1018.40 1017.13 1016.44 1015.82 1015.22 1014.80 1014.34 1013.92 1013.43 1013.00 1012.51 1011.93
1025.68 1025.36 1025.40 1025.31 1024.97 1024.59 1024.15 1023.68 1023.24 1022.76 1021.96 1021.67 1021.14 1020.57 1019.79 1018.72 1017.60 1016.45 1016.04 1015.43 1015.00 1014.64 1014.17 1013.52 1013.00 1012.39 1011.97
1026.05 1026.04 1025.94 1025.58 1025.09 1024.44 1023.92 1023.34 1022.71 1022.03 1021.57 1021.25 1020.93 1020.31 1019.73 1018.89 1018.03 1017.12 1016.18 1015.49 1014.96 1014.68 1014.17 1013.63 1013.05 1012.56 1012.08
1026.55 1026.30 1025.78 1025.29 1024.89 1024.40 1024.00 1023.31 1022.57 1021.63 1021.25 1020.84 1020.48 1020.03 1019.33 1018.66 1017.96 1017.23 1016.52 1015.99 1015.40 1014.96 1014.47 1013.64 1013.08 1012.71 1012.36
1026.78 1026.32 1025.78 1025.35 1024.89 1024.41 1023.96 1023.39 1022.68 1021.80 1021.06 1020.56 1020.16 1019.70 1018.98 1018.39 1017.75 1017.11 1016.50 1016.18 1015.69 1015.19 1014.58 1013.81 1013.13 1012.76 1012.38
1026.55 1026.20 1025.87 1025.47 1024.93 1024.27 1023.80 1023.28 1022.65 1021.97 1021.31 1020.72 1020.18 1019.42 1018.52 1017.48 1017.32 1017.12 1016.64 1016.37 1015.86 1015.33 1014.68 1014.06 1013.28 1012.89 1012.55
1026.34 1026.06 1025.68 1025.15 1024.65 1024.15 1023.62 1023.18 1022.55 1021.87 1021.33 1020.88 1020.44 1019.94 1018.99 1018.00 1017.19 1017.16 1017.00 1016.57 1016.01 1015.43 1014.89 1014.38 1013.85 1013.24 1012.94
Wind_Speed
5 7 10 10 10 10 10 11 10 18 17 20 22 21 21 23 23 22 23 25 24 25 25 22 21 18 16
7 7 8 9 11 11 9 10 11 14 20 19 19 20 22 22 22 21 21 21 22 22 22 22 17 20 20
7 6 7 7 10 10 10 10 9 16 17 18 20 23 22 20 19 17 19 22 21 22 21 19 18 18 18
6 7 6 7 7 9 9 9 11 11 12 16 22 20 19 18 17 16 19 22 23 20 19 16 15 15 16
6 6 6 8 9 9 10 10 11 9 10 12 11 10 10 13 13 17 21 20 20 17 19 16 14 14 16
6 8 8 8 8 9 10 12 9 8 12 12 10 10 9 9 17 18 17 17 17 17 19 20 19 17 17
7 9 10 10 9 10 10 11 12 11 11 12 10 11 10 10 13 14 16 18 18 18 19 19 18 19 19
6 9 9 10 9 9 10 11 11 9 9 9 10 11 11 9 11 13 17 16 16 18 18 18 18 18 18
9 9 10 10 9 7 7 8 9 10 7 8 8 12 11 7 7 15 15 16 18 19 17 16 16 17 13
7 6 6 6 6 5 6 7 8 6 5 7 9 7 6 5 11 9 9 15 18 15 15 15 14 9 8
5 5 5 6 6 6 7 6 7 8 10 6 6 8 5 9 9 10 9 10 8 10 15 15 14 12 8
5 6 7 7 8 8 10 9 8 11 13 11 6 8 8 9 10 9 10 10 7 7 7 11 14 13 13
5 6 7 7 9 9 9 10 10 10 7 9 7 9 8 8 8 10 10 7 6 8 8 7 6 6 8
5 6 6 6 7 7 7 8 9 7 7 8 9 9 9 8 8 8 7 6 8 8 8 8 5 5 7
5 6 7 7 7 7 6 7 7 8 8 7 9 9 9 10 8 7 7 7 7 8 9 7 6 5 6
5 6 7 7 8 8 7 7 7 7 7 7 9 8 7 6 8 7 7 7 7 8 8 8 6 6 7
6 6 6 6 9 7 7 7 7 7 7 7 6 7 8 9 6 2 7 8 7 7 7 7 7 7 7
Wind_Direction
303 314 318 328 327 330 327 329 321 321 318 322 322 321 329 326 323 323 324 322 321 318 315 318 313 315 316
313 326 326 314 333 326 329 325 321 322 323 318 324 321 328 321 320 319 328 321 314 309 308 311 311 316 318
315 321 328 335 332 329 328 322 326 328 323 329 330 320 316 317 315 324 322 325 319 311 306 314 312 311 315
326 321 328 338 322 328 328 335 330 332 336 327 320 318 317 315 312 314 319 322 316 317 315 316 313 316 317
323 321 327 337 336 334 330 331 339 341 332 323 322 320 317 315 313 323 318 313 312 334 337 328 329 329 325
322 320 323 332 338 333 328 339 330 334 329 317 318 315 319 321 324 322 317 327 331 325 326 323 323 322 317
317 313 322 335 322 326 329 320 311 318 311 310 307 318 324 320 322 326 329 328 322 315 312 309 312 310 305
323 320 317 315 323 323 313 301 305 305 321 295 321 318 322 315 317 324 322 324 322 320 316 315 312 306 303
314 307 317 329 330 318 313 318 311 315 310 323 316 321 318 309 327 326 323 320 321 321 320 318 317 315 297
329 337 341 339 322 314 306 298 309 302 342 325 317 338 312 311 330 323 323 325 325 327 330 326 319 313 310
333 335 330 325 326 320 306 291 293 284 297 323 305 308 291 305 318 314 330 330 332 334 340 330 323 319 313
338 337 340 326 324 319 311 306 294 285 291 296 280 294 295 299 303 321 328 325 341 333 325 327 330 328 320
334 328 318 316 314 312 317 313 305 299 297 297 287 291 287 289 293 306 316 318 335 339 334 322 320 329 327
312 312 309 321 321 324 316 321 320 317 319 313 308 309 298 289 297 298 302 321 327 331 325 317 317 338 328
304 312 316 319 329 326 320 317 318 320 324 325 328 309 288 279 293 297 312 320 329 325 321 322 316 331 329
307 312 314 314 317 330 326 324 319 320 322 327 329 326 320 304 224 298 323 328 324 321 321 323 323 338 335
309 307 310 309 320 316 327 321 316 312 324 326 326 328 328 330 329 290 323 324 320 319 327 326 321 331 336